Location: Alpha Ridge Park
(39.3209°N, 76.9128°W)
Time: 05:01:00
(UTC-05:00)

BlueWalker 3 - Visible Passes

Search period start: 08 December 2022 00:00
Search period end: 18 December 2022 00:00
Orbit: 501 x 518 km, 53.2° (Epoch: 07 December)

Date Brightness Start Highest point End Pass type
(mag) Time Alt. Az. Time Alt. Az. Time Alt. Az.
08 Dec 3.8 17:11:00 10° NNW 17:13:24 15° NNE 17:15:48 10° ENE visible
08 Dec 3.2 18:48:53 10° NW 18:51:16 33° NNW 18:51:16 33° NNW visible
09 Dec 1.9 18:30:28 10° NW 18:34:13 62° NNE 18:34:13 62° NNE visible
10 Dec 1.8 18:12:02 10° NW 18:15:55 67° NE 18:17:27 34° ESE visible
10 Dec 5.3 19:52:00 10° W 19:52:21 11° W 19:52:21 11° W visible
11 Dec 1.8 17:53:36 10° NW 17:57:30 72° NE 18:01:04 12° SE visible
11 Dec 4.9 19:33:47 10° W 19:35:42 13° SW 19:36:00 13° SW visible
12 Dec 1.9 17:35:10 10° NW 17:39:05 78° NE 17:42:56 10° SE visible
12 Dec 5.0 19:15:36 10° W 19:17:14 12° SW 19:18:51 10° SSW visible
13 Dec 1.9 17:16:44 10° NW 17:20:39 83° NE 17:24:31 10° SE visible
13 Dec 5.2 18:57:29 10° WSW 18:58:45 11° SW 19:00:02 10° SW visible
14 Dec 5.4 18:39:33 10° WSW 18:40:17 10° WSW 18:41:01 10° SW visible
